Zurück zum Katalog

STARLINK-3551

AktivKommunikationVLEO
NORAD 51887·PAYLOAD·🇺🇸 United States

Gestartet Mar 3, 2022 von Cape Canaveral Space Force Station

Loading…

Nächste Überflüge (nächste 24 Stunden)

TLE

AktuellSource: CelesTrak SupGP

Epoche: Sep 15, 2026, 02:16 UTC

1 51887C 22022AM  26258.09493056 -.00021124  00000+0 -62424-3 0  2586
2 51887  53.1582 212.6431 0001323  87.5468 104.4094 15.34394273    15

Verfolge STARLINK-3551 in Echtzeit mit AllMySat

Download on the App Store